Location: Chiroubles
(46.1812°N, 4.6660°E)
Time: 03:07:16
(UTC+00:00)

Lacrosse 4 Rocket - Pass Details

Date: 15 August 2020
Orbit: 544 x 615 km, 68.0° (Epoch: 27 September)

Event Time Altitude Azimuth Distance (km) Brightness Sun altitude
Exits shadow 21:37:24 44° 52° (NE) 804 2.1 -23.5°
Drops below altitude 10° 21:40:22 10° 36° (NE) 1,868 4.2 -23.8°
Sets 21:42:34 0° 34° (NNE) 2,758 5.2 -24.0°
